Date String (YYYY-MM-DD hh:mm:ss) UTC,Instrument flags,absolute air pressure of the measurement (hPa),sample flow rate (lpm),inlet stack bypass flow (lpm),air temperature of the measurement (°C),ambient temperature measured by the external sensor (°C),aerosol sample conditioner tube jacket temperature (°C),OPC LED temperature (°C),internal box temperature (°C),relative humidity of the measurement (%),span deviation,mass concentration of particles derived from Lorenz-Mie calculation of OPC scattering (μg/m³),mass concentration of particles derived from Lorenz-Mie calculation of OPC scattering (μg/m³),mass concentration of particles derived from Lorenz-Mie calculation of OPC scattering (μg/m³)
DateTimeUTC,F1_M11,P_M11,Q1_M11,Q2_M11,T1_M11,T2_M11,T3_M11,T4_M11,T5_M11,U1_M11,ZSPAN_M11,X0_M11,X2_M11,X1_M11
2024-06-06 07:00:00,SystemResetWarning,0829.7,5.00,000.00,029.8,029.1,000.0,037.9,031.6,015.8,0000.0,0006.19,0001.60,0000.97
2024-06-06 07:01:00,SystemResetWarning,0829.7,5.01,000.00,029.8,029.3,000.0,037.9,031.6,015.9,0000.0,0005.94,0001.65,0000.97
2024-06-06 07:02:00,SystemResetWarning,0829.7,5.00,000.00,029.9,029.3,000.0,037.9,031.7,015.8,0000.0,0006.20,0001.72,0000.97
2024-06-06 07:03:00,SystemResetWarning,0829.7,5.00,000.00,029.9,029.4,000.0,038.0,031.7,015.6,0000.0,0006.15,0001.71,0000.97
2024-06-06 07:04:00,SystemResetWarning,0829.7,5.00,000.00,030.0,029.5,000.0,038.0,031.8,015.6,0000.0,0005.34,0001.68,0000.96
2024-06-06 07:05:00,SystemResetWarning,0829.7,5.00,000.00,030.1,029.6,000.0,038.0,031.8,015.5,0000.0,0005.39,0001.68,0000.95
2024-06-06 07:06:00,SystemResetWarning,0829.7,5.00,000.00,030.1,029.6,000.0,038.1,031.9,015.3,0000.0,0005.44,0001.67,0000.95
2024-06-06 07:07:00,SystemResetWarning,0829.8,5.00,000.00,030.2,029.7,000.0,038.1,031.9,015.3,0000.0,0005.43,0001.68,0000.96
2024-06-06 07:08:00,SystemResetWarning,0829.7,4.99,000.00,030.2,029.3,000.0,038.2,031.7,015.2,0000.0,0005.05,0001.68,0000.95
2024-06-06 07:09:00,SystemResetWarning,0829.7,5.00,000.00,029.9,027.0,000.0,038.2,030.7,015.4,0000.0,0003.70,0001.72,0000.96
2024-06-06 07:10:00,SystemResetWarning,0829.6,5.02,000.00,029.5,026.4,000.0,038.3,030.2,015.8,0000.0,0003.40,0001.71,0000.96
2024-06-06 07:11:00,SystemResetWarning,0829.7,4.99,000.00,029.4,026.8,000.0,038.2,030.3,015.8,0000.0,0003.79,0001.74,0000.96
2024-06-06 07:12:00,SystemResetWarning,0829.7,5.01,000.00,029.4,027.2,000.0,038.0,030.6,015.9,0000.0,0005.11,0001.74,0000.97
2024-06-06 07:13:00,SystemResetWarning,0829.7,4.99,000.00,029.4,027.6,000.0,038.0,030.8,016.0,0000.0,0005.00,0001.71,0000.97
2024-06-06 07:14:00,SystemResetWarning,0829.7,5.01,000.00,029.4,027.9,000.0,037.9,031.0,016.3,0000.0,0005.18,0001.65,0000.95
2024-06-06 07:15:00,SystemResetWarning,0829.7,4.99,000.00,029.5,028.2,000.0,037.9,031.1,016.2,0000.0,0005.67,0001.64,0000.95
2024-06-06 07:16:00,SystemResetWarning,0829.7,5.00,000.00,029.5,028.4,000.0,037.9,031.2,016.1,0000.0,0005.75,0001.62,0000.96
2024-06-06 07:17:00,SystemResetWarning,0829.8,5.00,000.00,029.6,028.6,000.0,037.9,031.3,016.3,0000.0,0006.01,0001.65,0000.97
2024-06-06 07:18:00,SystemResetWarning,0829.8,5.01,000.00,029.6,028.8,000.0,037.9,031.4,016.5,0000.0,0006.34,0001.64,0000.96
2024-06-06 07:19:00,SystemResetWarning,0829.8,5.00,000.00,029.7,028.9,000.0,037.9,031.4,016.5,0000.0,0006.93,0001.69,0000.97
2024-06-06 07:20:00,SystemResetWarning,0829.8,4.99,000.00,029.7,029.1,000.0,037.9,031.5,016.4,0000.0,0006.95,0001.69,0000.98
2024-06-06 07:21:00,SystemResetWarning,0829.8,5.00,000.00,029.8,029.2,000.0,037.9,031.6,016.2,0000.0,0007.05,0001.67,0000.97
2024-06-06 07:22:00,SystemResetWarning,0829.8,5.01,000.00,029.8,029.3,000.0,037.9,031.6,016.0,0000.0,0006.96,0001.66,0000.96
2024-06-06 07:23:00,SystemResetWarning,0829.9,5.00,000.00,029.9,029.3,000.0,038.0,031.7,016.0,0000.0,0005.48,0001.67,0000.97
2024-06-06 07:24:00,SystemResetWarning,0829.9,5.01,000.00,030.0,029.4,000.0,038.0,031.7,016.0,0000.0,0005.35,0001.62,0000.95
2024-06-06 07:25:00,SystemResetWarning,0829.9,5.00,000.00,030.0,029.5,000.0,038.0,031.8,016.1,0000.0,0005.19,0001.59,0000.94
2024-06-06 07:26:00,SystemResetWarning,0830.0,5.00,000.00,030.1,029.5,000.0,038.1,031.8,016.1,0000.0,0004.64,0001.58,0000.95
2024-06-06 07:27:00,SystemResetWarning,0830.1,5.00,000.00,030.1,029.6,000.0,038.1,031.9,015.9,0000.0,0004.36,0001.58,0000.95
2024-06-06 07:28:00,SystemResetWarning,0830.0,5.00,000.00,030.1,029.6,000.0,038.1,031.9,015.8,0000.0,0004.06,0001.59,0000.96
2024-06-06 07:29:00,SystemResetWarning,0830.0,4.99,000.00,030.2,029.7,000.0,038.2,031.9,015.7,0000.0,0003.77,0001.57,0000.98
2024-06-06 07:30:00,SystemResetWarning,0830.0,4.99,000.00,030.2,029.7,000.0,038.2,032.0,015.7,0000.0,0003.47,0001.52,0000.97
2024-06-06 07:31:00,SystemResetWarning,0830.0,5.00,000.00,030.3,029.8,000.0,038.2,032.0,015.8,0000.0,0003.54,0001.50,0000.97
2024-06-06 07:32:00,SystemResetWarning,0830.0,5.00,000.00,030.3,029.8,000.0,038.3,032.0,015.8,0000.0,0003.54,0001.54,0000.99
2024-06-06 07:33:00,SystemResetWarning,0830.0,5.00,000.00,030.4,029.9,000.0,038.3,032.1,015.7,0000.0,0004.22,0001.53,0001.00
2024-06-06 07:34:00,SystemResetWarning,0830.0,4.99,000.00,030.3,028.6,000.0,038.4,031.4,015.9,0000.0,0004.67,0001.50,0001.00
2024-06-06 07:35:00,SystemResetWarning,0830.0,5.02,000.00,029.8,026.4,000.0,038.4,030.5,016.4,0000.0,0005.30,0001.50,0001.00
2024-06-06 07:36:00,SystemResetWarning,0829.9,5.01,000.00,029.6,026.5,000.0,038.4,030.3,016.5,0000.0,0005.63,0001.60,0001.02
2024-06-06 07:37:00,SystemResetWarning,0830.0,4.99,000.00,029.5,026.8,000.0,038.3,030.5,016.7,0000.0,0006.42,0001.70,0001.03
2024-06-06 07:38:00,SystemResetWarning,0830.0,5.00,000.00,029.5,027.3,000.0,038.2,030.8,016.6,0000.0,0006.53,0001.73,0001.03
2024-06-06 07:39:00,SystemResetWarning,0830.1,5.00,000.00,029.5,027.6,000.0,038.1,030.9,016.4,0000.0,0006.77,0001.74,0001.02
2024-06-06 07:40:00,SystemResetWarning,0830.0,5.00,000.00,029.5,028.0,000.0,038.0,031.1,016.3,0000.0,0006.80,0001.74,0001.02
2024-06-06 07:41:00,SystemResetWarning,0830.1,5.00,000.00,029.6,028.3,000.0,038.0,031.2,016.1,0000.0,0006.44,0001.72,0001.01
2024-06-06 07:42:00,SystemResetWarning,0830.0,5.00,000.00,029.6,028.5,000.0,038.0,031.3,016.0,0000.0,0006.13,0001.69,0001.00
2024-06-06 07:43:00,SystemResetWarning,0830.0,5.01,000.00,029.7,028.7,000.0,038.0,031.4,015.9,0000.0,0005.96,0001.65,0000.99
2024-06-06 07:44:00,SystemResetWarning,0830.0,5.00,000.00,029.7,028.9,000.0,038.0,031.4,015.9,0000.0,0005.65,0001.69,0000.97
2024-06-06 07:45:00,SystemResetWarning,0830.0,5.00,000.00,029.8,029.0,000.0,038.0,031.5,016.1,0000.0,0005.13,0001.74,0000.97
2024-06-06 07:46:00,SystemResetWarning,0830.1,4.98,000.00,029.8,029.1,000.0,038.0,031.6,016.2,0000.0,0004.61,0001.79,0000.98
2024-06-06 07:47:00,SystemResetWarning,0830.1,5.00,000.00,029.9,029.2,000.0,038.0,031.6,016.8,0000.0,0004.44,0001.77,0000.98
2024-06-06 07:48:00,SystemResetWarning,0830.2,5.01,000.00,029.9,029.3,000.0,038.0,031.7,017.1,0000.0,0003.52,0001.69,0000.98
2024-06-06 07:49:00,SystemResetWarning,0830.2,5.01,000.00,030.0,029.4,000.0,038.1,031.8,017.3,0000.0,0003.60,0001.69,0000.98
2024-06-06 07:50:00,SystemResetWarning,0830.3,5.00,000.00,030.0,029.5,000.0,038.1,031.8,017.1,0000.0,0003.65,0001.65,0001.00
2024-06-06 07:51:00,SystemResetWarning,0830.4,5.00,000.00,030.1,029.5,000.0,038.1,031.8,017.3,0000.0,0003.61,0001.64,0001.00
2024-06-06 07:52:00,SystemResetWarning,0830.4,4.99,000.00,030.1,029.6,000.0,038.2,031.9,017.5,0000.0,0003.94,0001.68,0001.01
2024-06-06 07:53:00,SystemResetWarning,0830.4,5.00,000.00,030.2,029.7,000.0,038.2,031.9,017.5,0000.0,0004.65,0001.72,0001.02
2024-06-06 07:54:00,SystemResetWarning,0830.4,5.00,000.00,030.2,029.7,000.0,038.3,032.0,017.6,0000.0,0006.13,0001.86,0001.04
2024-06-06 07:55:00,SystemResetWarning,0830.4,5.00,000.00,030.2,029.8,000.0,038.3,032.0,017.6,0000.0,0006.55,0001.95,0001.07
2024-06-06 07:56:00,SystemResetWarning,0830.4,5.00,000.00,030.3,029.8,000.0,038.3,032.0,017.6,0000.0,0008.14,0002.09,0001.10
2024-06-06 07:57:00,SystemResetWarning,0830.4,5.00,000.00,030.3,029.8,000.0,038.4,032.1,017.9,0000.0,0008.43,0002.13,0001.11
2024-06-06 07:58:00,SystemResetWarning,0830.4,5.01,000.00,030.4,029.9,000.0,038.4,032.1,018.2,0000.0,0009.46,0002.29,0001.12
2024-06-06 07:59:00,SystemResetWarning,0830.4,5.00,000.00,030.4,029.9,000.0,038.4,032.1,018.3,0000.0,0011.70,0002.38,0001.14
